When you browse on this site, cookies collect data to enhance your experience and personalize the content and advertising you see.
Visit our Privacy Policy to learn more. By continuing to use the site, you agree to this use of cookies and data.
  • In Switzerland
  • List of Countries
  • For 7 days
  • Water Temperature
  • Satellite Maps
  • Weather Map
  • Weather Widgets
  • user-avatar
    Login

    Hourly Weather Nakuru

    Today, 26 June, Wednesday

    Time Temperature Precipitation Wind Pressure Humidity
    00:00 +16°C° 0 mm 1 mps 605 mmHg 92%
    01:00 +15°C° 0 mm 1 mps 604 mmHg 92%
    02:00 +15°C° 0 mm 1 mps 604 mmHg 93%
    03:00 +15°C° 0 mm 1 mps 604 mmHg 93%
    04:00 +14°C° 0 mm 1 mps 604 mmHg 93%
    05:00 +14°C° 0 mm 1 mps 604 mmHg 93%
    06:00 +16°C° 0 mm 1 mps 605 mmHg 90%
    07:00 +18°C° 0 mm 1 mps 606 mmHg 88%
    08:00 +18°C° 0 mm 2 mps 607 mmHg 85%
    09:00 +21°C° 0.1 mm 1 mps 607 mmHg 80%
    10:00 +22°C° 0.1 mm 1 mps 607 mmHg 74%
    11:00 +23°C° 0.1 mm 1 mps 607 mmHg 69%
    12:00 +23°C° 0.9 mm 2 mps 607 mmHg 70%
    13:00 +23°C° 0.9 mm 2 mps 607 mmHg 71%
    14:00 +22°C° 0.9 mm 3 mps 606 mmHg 73%
    15:00 +21°C° 1.2 mm 2 mps 606 mmHg 78%
    16:00 +21°C° 1.2 mm 1 mps 606 mmHg 83%
    17:00 +20°C° 1.2 mm 1 mps 605 mmHg 88%
    18:00 +19°C° 0.3 mm 1 mps 605 mmHg 89%
    19:00 +18°C° 0.3 mm 1 mps 605 mmHg 90%
    20:00 +16°C° 0.3 mm 1 mps 605 mmHg 92%
    21:00 +16°C° 0 mm 1 mps 605 mmHg 92%
    22:00 +15°C° 0 mm 1 mps 605 mmHg 92%
    23:00 +15°C° 0 mm 1 mps 605 mmHg 93%

    Tomorrow, 27 June, Thursday

    Time Temperature Precipitation Wind Pressure Humidity
    00:00 +15°C° 0 mm 1 mps 605 mmHg 93%
    01:00 +14°C° 0 mm 1 mps 604 mmHg 92%
    02:00 +14°C° 0 mm 1 mps 604 mmHg 92%
    03:00 +14°C° 0 mm 1 mps 604 mmHg 92%
    04:00 +14°C° 0 mm 1 mps 604 mmHg 92%
    05:00 +13°C° 0 mm 1 mps 604 mmHg 92%
    06:00 +15°C° 0 mm 1 mps 605 mmHg 89%
    07:00 +18°C° 0 mm 1 mps 606 mmHg 86%
    08:00 +19°C° 0 mm 1 mps 607 mmHg 83%
    09:00 +21°C° 0 mm 1 mps 607 mmHg 77%
    10:00 +22°C° 0 mm 1 mps 608 mmHg 70%
    11:00 +24°C° 0 mm 1 mps 608 mmHg 63%
    12:00 +24°C° 0.2 mm 2 mps 607 mmHg 61%
    13:00 +24°C° 0.2 mm 2 mps 607 mmHg 60%
    14:00 +24°C° 0.2 mm 2 mps 606 mmHg 58%
    15:00 +23°C° 0.2 mm 2 mps 606 mmHg 65%
    16:00 +22°C° 0.2 mm 1 mps 606 mmHg 72%
    17:00 +21°C° 0.2 mm 1 mps 605 mmHg 78%
    18:00 +20°C° 0.1 mm 1 mps 605 mmHg 82%
    19:00 +18°C° 0.1 mm 1 mps 605 mmHg 85%
    20:00 +15°C° 0.1 mm 1 mps 605 mmHg 89%
    21:00 +15°C° 0 mm 1 mps 605 mmHg 89%
    22:00 +15°C° 0 mm 1 mps 605 mmHg 89%
    23:00 +15°C° 0 mm 1 mps 605 mmHg 90%

    Day after tomorrow, 28 June, Friday

    Time Temperature Precipitation Wind Pressure Humidity
    00:00 +14°C° 0 mm 1 mps 605 mmHg 90%
    01:00 +14°C° 0 mm 1 mps 604 mmHg 90%
    02:00 +14°C° 0 mm 1 mps 604 mmHg 90%
    03:00 +14°C° 0 mm 1 mps 604 mmHg 90%
    04:00 +14°C° 0 mm 1 mps 604 mmHg 91%
    05:00 +13°C° 0 mm 1 mps 604 mmHg 91%
    06:00 +15°C° 0 mm 1 mps 605 mmHg 87%
    07:00 +18°C° 0 mm 1 mps 606 mmHg 84%
    08:00 +20°C° 0 mm 1 mps 607 mmHg 80%
    09:00 +21°C° 0.1 mm 1 mps 607 mmHg 75%
    10:00 +22°C° 0.1 mm 1 mps 607 mmHg 69%
    11:00 +24°C° 0.1 mm 1 mps 608 mmHg 63%
    12:00 +24°C° 0.4 mm 1 mps 607 mmHg 63%
    13:00 +24°C° 0.4 mm 2 mps 607 mmHg 62%
    14:00 +24°C° 0.4 mm 2 mps 606 mmHg 62%
    15:00 +23°C° 0.7 mm 2 mps 606 mmHg 69%
    16:00 +21°C° 0.7 mm 2 mps 606 mmHg 77%
    17:00 +21°C° 0.7 mm 1 mps 605 mmHg 84%
    18:00 +19°C° 0.4 mm 1 mps 605 mmHg 86%
    19:00 +18°C° 0.4 mm 1 mps 605 mmHg 87%
    20:00 +16°C° 0.4 mm 1 mps 605 mmHg 89%
    21:00 +16°C° 0.1 mm 1 mps 605 mmHg 89%
    22:00 +15°C° 0.1 mm 1 mps 605 mmHg 89%
    23:00 +15°C° 0.1 mm 1 mps 605 mmHg 89%

    29 June, Saturday

    Time Temperature Precipitation Wind Pressure Humidity
    00:00 +15°C° 0 mm 1 mps 605 mmHg 90%
    01:00 +15°C° 0 mm 1 mps 604 mmHg 90%
    02:00 +14°C° 0 mm 1 mps 604 mmHg 90%
    03:00 +14°C° 0 mm 1 mps 604 mmHg 90%
    04:00 +14°C° 0 mm 1 mps 604 mmHg 90%
    05:00 +14°C° 0 mm 1 mps 604 mmHg 90%
    06:00 +15°C° 0 mm 1 mps 606 mmHg 88%
    07:00 +18°C° 0 mm 1 mps 607 mmHg 85%
    08:00 +19°C° 0 mm 1 mps 608 mmHg 82%
    09:00 +21°C° 0.2 mm 1 mps 608 mmHg 77%
    10:00 +22°C° 0.2 mm 1 mps 608 mmHg 73%
    11:00 +23°C° 0.2 mm 1 mps 608 mmHg 68%
    12:00 +23°C° 0.9 mm 1 mps 608 mmHg 70%
    13:00 +23°C° 0.9 mm 2 mps 607 mmHg 71%
    14:00 +23°C° 0.9 mm 2 mps 607 mmHg 73%
    15:00 +22°C° 1.6 mm 1 mps 606 mmHg 78%
    16:00 +21°C° 1.6 mm 1 mps 606 mmHg 83%
    17:00 +20°C° 1.6 mm 1 mps 605 mmHg 88%
    18:00 +19°C° 0.4 mm 1 mps 605 mmHg 89%
    19:00 +18°C° 0.4 mm 1 mps 605 mmHg 89%
    20:00 +16°C° 0.4 mm 1 mps 605 mmHg 90%
    21:00 +16°C° 0 mm 1 mps 605 mmHg 90%
    22:00 +15°C° 0 mm 1 mps 605 mmHg 90%
    23:00 +15°C° 0 mm 1 mps 605 mmHg 90%

    30 June, Sunday

    Time Temperature Precipitation Wind Pressure Humidity
    00:00 +15°C° 0 mm 1 mps 605 mmHg 90%
    01:00 +14°C° 0 mm 1 mps 605 mmHg 90%
    02:00 +14°C° 0 mm 1 mps 604 mmHg 91%
    03:00 +14°C° 0 mm 1 mps 604 mmHg 91%
    04:00 +13°C° 0 mm 1 mps 604 mmHg 91%
    05:00 +13°C° 0 mm 1 mps 605 mmHg 90%
    06:00 +15°C° 0 mm 2 mps 606 mmHg 87%
    07:00 +16°C° 0 mm 2 mps 606 mmHg 84%
    08:00 +18°C° 0 mm 2 mps 607 mmHg 81%
    09:00 +19°C° 0.1 mm 2 mps 608 mmHg 76%
    10:00 +21°C° 0.1 mm 2 mps 608 mmHg 72%
    11:00 +23°C° 0.1 mm 2 mps 608 mmHg 67%
    12:00 +23°C° 0.9 mm 2 mps 608 mmHg 69%
    13:00 +22°C° 0.9 mm 3 mps 607 mmHg 71%
    14:00 +22°C° 0.9 mm 3 mps 607 mmHg 72%
    15:00 +21°C° 0.8 mm 3 mps 606 mmHg 77%
    16:00 +20°C° 0.8 mm 3 mps 606 mmHg 81%
    17:00 +19°C° 0.8 mm 2 mps 606 mmHg 85%
    18:00 +18°C° 0.1 mm 2 mps 606 mmHg 87%
    19:00 +16°C° 0.1 mm 2 mps 606 mmHg 89%
    20:00 +15°C° 0.1 mm 2 mps 606 mmHg 91%
    21:00 +15°C° 0 mm 2 mps 606 mmHg 91%
    22:00 +15°C° 0 mm 2 mps 606 mmHg 90%
    23:00 +15°C° 0 mm 2 mps 606 mmHg 89%

    1 July, Monday

    Time Temperature Precipitation Wind Pressure Humidity
    00:00 +15°C° 0 mm 2 mps 605 mmHg 90%
    01:00 +14°C° 0 mm 2 mps 605 mmHg 90%
    02:00 +14°C° 0 mm 2 mps 604 mmHg 91%
    03:00 +14°C° 0 mm 2 mps 604 mmHg 91%
    04:00 +13°C° 0 mm 2 mps 604 mmHg 91%
    05:00 +13°C° 0 mm 2 mps 604 mmHg 92%
    06:00 +14°C° 0 mm 2 mps 605 mmHg 88%
    07:00 +16°C° 0 mm 3 mps 606 mmHg 85%
    08:00 +18°C° 0 mm 3 mps 607 mmHg 82%
    09:00 +19°C° 0.1 mm 3 mps 607 mmHg 77%
    10:00 +20°C° 0.1 mm 2 mps 607 mmHg 72%
    11:00 +23°C° 0.1 mm 2 mps 608 mmHg 67%
    12:00 +23°C° 0.5 mm 2 mps 607 mmHg 67%
    13:00 +23°C° 0.5 mm 2 mps 607 mmHg 67%
    14:00 +23°C° 0.5 mm 1 mps 606 mmHg 67%
    15:00 +21°C° 0.8 mm 2 mps 606 mmHg 73%
    16:00 +20°C° 0.8 mm 2 mps 605 mmHg 79%
    17:00 +19°C° 0.8 mm 2 mps 605 mmHg 85%
    18:00 +18°C° 0.2 mm 2 mps 605 mmHg 86%
    19:00 +17°C° 0.2 mm 2 mps 605 mmHg 87%
    20:00 +16°C° 0.2 mm 2 mps 605 mmHg 88%
    21:00 +16°C° 0.2 mm 2 mps 605 mmHg 89%
    22:00 +15°C° 0.2 mm 1 mps 605 mmHg 89%
    23:00 +15°C° 0.2 mm 1 mps 605 mmHg 89%
    Show more